Regional Weather Roundup
Issued by NWS

Home | Current Version | Previous Version | Text Only | Print | Product List | Glossary Off
Versions: 1 2 3 4 5 6 7 8 9 10 11 12 13 14 15 16 17 18 19 20 21 22 23 24 25 26 27 28 29 30 31 32 33 34 35 36 37 38 39 40 41 42 43 44 45 46 47 48 49 50

000
ASUS45 KCYS 110910
RWRWY

WYOMING REGIONAL WEATHER ROUNDUP
NATIONAL WEATHER SERVICE CHEYENNE WY
200 AM MST SUN DEC 11 2016

NOTE:  "FAIR" INDICATES FEW OR NO CLOUDS BELOW 12,000 FEET
WITH NO SIGNIFICANT WEATHER AND/OR OBSTRUCTIONS TO VISIBILITY.

WYZ001-111000-
YELLOWSTONE NATIONAL PARK

CITY           SKY/WX    TMP DP  RH WIND       PRES   REMARKS
LK YELLOWSTONE   N/A      7   5  91 W5        29.79R WCI  -2
W YELLOWSTONE  NOT AVBL

$$
WYZ002>013-054>058-071-098>099-111000-
NORTHERN WYOMING

CITY           SKY/WX    TMP DP  RH WIND       PRES   REMARKS
JACKSON        CLOUDY    27  21  80 S10       29.78R WCI  17
CODY           CLOUDY    10   8  92 CALM      29.80R
GREYBULL       FAIR      14  10  84 NW8       29.82R WCI   3
WORLAND        CLOUDY    24  21  88 NE5       29.81R WCI  18
SHERIDAN       FAIR      15  10  80 S3        29.82R
BUFFALO        CLOUDY    27  16  63 W3        29.79R
GILLETTE       FAIR       2   2 100 CALM      29.80R
HULETT         FAIR      12  10  92 S9        29.80R WCI   0
NEWCASTLE      FAIR      16  12  86 NW7       29.80R WCI   6

$$
WYZ014>020-022>026-101>103-111000-
CENTRAL WYOMING

CITY           SKY/WX    TMP DP  RH WIND       PRES   REMARKS
BIG PINEY      FAIR      17  16  95 S7        29.80F WCI   8
PINEDALE       PTSUNNY   14  12  92 NE6       29.80R WCI   5
DUBOIS         PTSUNNY   23  10  58 NW7       29.71S WCI  15
LANDER         FAIR      25  20  81 SE5       29.73F WCI  19
RIVERTON       FAIR      21  16  81 MISG      29.76S
CASPER         LGT SNOW  26  24  92 E9        29.79R FOG     WCI  17
DOUGLAS        FLURRIES  28  24  85 CALM      29.83R

$$
WYZ021-027>030-104>119-111000-
SOUTHERN WYOMING

CITY           SKY/WX    TMP DP  RH WIND       PRES   REMARKS
EVANSTON       MOCLDY    27  24  89 W14       29.88R WCI  16
KEMMERER       LGT SNOW  28  27  93 W12       29.84R WCI  18
FORT BRIDGER   CLOUDY    31  31 100 W16       29.90R WCI  20
ROCK SPRINGS   CLOUDY    28  27  96 W15       29.84S WCI  16
DIXON          LGT SNOW  31  30  95 NW3       29.87S
RAWLINS        MOCLDY    31  24  75 W26G36    29.79R WCI  17
SARATOGA       CLOUDY    30  30 100 SW3       29.81S
LARAMIE        CLOUDY    29  23  78 N7        29.76S WCI  22
CHEYENNE       FAIR      26  24  92 N9        29.76S WCI  17
TORRINGTON     CLOUDY    32  23  69 W7        29.78R WCI  26
PINE BLUFFS    CLOUDY    30  27  86 N18       29.79R WCI  18

$$



USA.gov is the U.S. government's official web portal to all federal, state and local government web resources and services.